When you browse on this site, cookies collect data to enhance your experience and personalize the content and advertising you see.
Visit our Privacy Policy to learn more. By continuing to use the site, you agree to this use of cookies and data.
  • Em Portugal
  • Lista de países
  • Para 7 dias
  • Temperatura da água
  • Mapas de satélite
  • Mapa do tempo
  • Widgets de tempo
  • user-avatar
    Iniciar Sessão

    Previsão horária em Bansko

    Hoje, 17 Dezembro, Segunda-feira

    Tempo Temperatura Precipitação Vento Pressão Humidade
    00:00 -2°C° 0 mm 2 m/s 721 mmHg 85%
    01:00 -2°C° 0 mm 2 m/s 721 mmHg 84%
    02:00 -2°C° 0 mm 2 m/s 720 mmHg 80%
    03:00 -2°C° 0 mm 2 m/s 720 mmHg 79%
    04:00 -2°C° 0 mm 2 m/s 720 mmHg 78%
    05:00 +1°C° 0 mm 1 m/s 720 mmHg 77%
    06:00 +1°C° 0 mm 1 m/s 720 mmHg 77%
    07:00 +1°C° 0 mm 1 m/s 720 mmHg 76%
    08:00 +1°C° 0 mm 1 m/s 720 mmHg 76%
    09:00 +2°C° 0 mm 1 m/s 720 mmHg 75%
    10:00 +4°C° 0 mm 1 m/s 720 mmHg 74%
    11:00 +5°C° 0 mm 1 m/s 720 mmHg 72%
    12:00 +5°C° 0 mm 1 m/s 720 mmHg 73%
    13:00 +6°C° 0 mm 1 m/s 720 mmHg 73%
    14:00 +7°C° 0 mm 1 m/s 720 mmHg 74%
    15:00 +6°C° 0 mm 1 m/s 720 mmHg 77%
    16:00 +5°C° 0 mm 1 m/s 720 mmHg 79%
    17:00 +4°C° 0 mm 1 m/s 720 mmHg 82%
    18:00 +4°C° 0 mm 1 m/s 720 mmHg 83%
    19:00 +4°C° 0 mm 1 m/s 721 mmHg 85%
    20:00 +3°C° 0 mm 1 m/s 721 mmHg 86%
    21:00 +2°C° 0.1 mm 2 m/s 721 mmHg 87%
    22:00 +2°C° 0.1 mm 2 m/s 722 mmHg 88%
    23:00 +2°C° 0.1 mm 2 m/s 722 mmHg 88%

    Amanhã, 18 Dezembro, Terça-feira

    Tempo Temperatura Precipitação Vento Pressão Humidade
    00:00 +2°C° 0 mm 2 m/s 722 mmHg 88%
    01:00 +1°C° 0 mm 2 m/s 722 mmHg 89%
    02:00 +1°C° 0 mm 2 m/s 722 mmHg 89%
    03:00 +1°C° 0.1 mm 2 m/s 722 mmHg 89%
    04:00 +1°C° 0.1 mm 2 m/s 722 mmHg 89%
    05:00 +1°C° 0.1 mm 2 m/s 722 mmHg 89%
    06:00 -1°C° 0.1 mm 2 m/s 723 mmHg 88%
    07:00 -1°C° 0.1 mm 2 m/s 723 mmHg 88%
    08:00 -1°C° 0.1 mm 2 m/s 723 mmHg 88%
    09:00 0°C° 0.1 mm 3 m/s 723 mmHg 86%
    10:00 +1°C° 0.1 mm 3 m/s 724 mmHg 84%
    11:00 +2°C° 0.1 mm 3 m/s 724 mmHg 82%
    12:00 +2°C° 0 mm 3 m/s 724 mmHg 81%
    13:00 +3°C° 0 mm 3 m/s 724 mmHg 81%
    14:00 +3°C° 0 mm 3 m/s 724 mmHg 81%
    15:00 +2°C° 0 mm 3 m/s 724 mmHg 83%
    16:00 +2°C° 0 mm 3 m/s 724 mmHg 85%
    17:00 +1°C° 0 mm 3 m/s 724 mmHg 87%
    18:00 0°C° 0 mm 3 m/s 724 mmHg 87%
    19:00 +1°C° 0 mm 2 m/s 725 mmHg 87%
    20:00 -1°C° 0 mm 2 m/s 725 mmHg 88%
    21:00 -1°C° 0 mm 2 m/s 725 mmHg 88%
    22:00 -1°C° 0 mm 2 m/s 725 mmHg 88%
    23:00 -1°C° 0 mm 2 m/s 725 mmHg 88%

    Depois de amanhã, 19 Dezembro, Quarta-feira

    Tempo Temperatura Precipitação Vento Pressão Humidade
    00:00 -1°C° 0 mm 2 m/s 725 mmHg 88%
    01:00 -1°C° 0 mm 2 m/s 725 mmHg 88%
    02:00 -2°C° 0 mm 2 m/s 725 mmHg 88%
    03:00 -2°C° 0 mm 2 m/s 725 mmHg 88%
    04:00 -2°C° 0 mm 2 m/s 725 mmHg 88%
    05:00 -2°C° 0 mm 2 m/s 725 mmHg 87%
    06:00 -2°C° 0 mm 2 m/s 725 mmHg 87%
    07:00 -2°C° 0 mm 2 m/s 725 mmHg 87%
    08:00 -2°C° 0 mm 2 m/s 726 mmHg 87%
    09:00 -1°C° 0 mm 2 m/s 726 mmHg 84%
    10:00 +1°C° 0 mm 2 m/s 726 mmHg 80%
    11:00 +2°C° 0 mm 2 m/s 726 mmHg 77%
    12:00 +3°C° 0 mm 2 m/s 726 mmHg 76%
    13:00 +3°C° 0 mm 2 m/s 726 mmHg 75%
    14:00 +4°C° 0 mm 2 m/s 726 mmHg 74%
    15:00 +3°C° 0 mm 2 m/s 726 mmHg 78%
    16:00 +2°C° 0 mm 2 m/s 726 mmHg 82%
    17:00 +1°C° 0 mm 2 m/s 726 mmHg 85%
    18:00 +1°C° 0 mm 1 m/s 727 mmHg 86%
    19:00 +1°C° 0 mm 1 m/s 727 mmHg 86%
    20:00 0°C° 0 mm 1 m/s 727 mmHg 87%
    21:00 0°C° 0 mm 1 m/s 727 mmHg 85%
    22:00 0°C° 0 mm 1 m/s 727 mmHg 84%
    23:00 0°C° 0 mm 1 m/s 727 mmHg 83%

    20 Dezembro, Quinta-feira

    Tempo Temperatura Precipitação Vento Pressão Humidade
    00:00 0°C° 0 mm 1 m/s 727 mmHg 82%
    01:00 0°C° 0 mm 1 m/s 727 mmHg 81%
    02:00 0°C° 0 mm 1 m/s 727 mmHg 80%
    03:00 0°C° 0 mm 1 m/s 727 mmHg 79%
    04:00 -1°C° 0 mm 0 m/s 727 mmHg 78%
    05:00 -1°C° 0 mm 0 m/s 727 mmHg 77%
    06:00 0°C° 0 mm 1 m/s 727 mmHg 77%
    07:00 0°C° 0 mm 1 m/s 727 mmHg 77%
    08:00 0°C° 0 mm 1 m/s 727 mmHg 76%
    09:00 +2°C° 0 mm 1 m/s 728 mmHg 74%
    10:00 +4°C° 0 mm 1 m/s 728 mmHg 72%
    11:00 +6°C° 0 mm 1 m/s 728 mmHg 70%
    12:00 +7°C° 0 mm 1 m/s 727 mmHg 71%
    13:00 +7°C° 0 mm 1 m/s 727 mmHg 72%
    14:00 +6°C° 0 mm 2 m/s 726 mmHg 73%
    15:00 +6°C° 0 mm 1 m/s 726 mmHg 76%
    16:00 +5°C° 0 mm 1 m/s 726 mmHg 80%
    17:00 +4°C° 0 mm 1 m/s 726 mmHg 84%
    18:00 +3°C° 0 mm 1 m/s 726 mmHg 85%
    19:00 +2°C° 0 mm 1 m/s 727 mmHg 86%
    20:00 +1°C° 0 mm 1 m/s 727 mmHg 87%
    21:00 +1°C° 0 mm 1 m/s 727 mmHg 86%
    22:00 +1°C° 0 mm 1 m/s 727 mmHg 86%
    23:00 +1°C° 0 mm 1 m/s 727 mmHg 86%

    21 Dezembro, Sexta-feira

    Tempo Temperatura Precipitação Vento Pressão Humidade
    00:00 +1°C° 0 mm 1 m/s 727 mmHg 86%
    01:00 +1°C° 0 mm 1 m/s 727 mmHg 86%
    02:00 +1°C° 0 mm 1 m/s 726 mmHg 85%
    03:00 +1°C° 0 mm 1 m/s 726 mmHg 85%
    04:00 +1°C° 0 mm 1 m/s 726 mmHg 84%
    05:00 +1°C° 0 mm 1 m/s 726 mmHg 83%
    06:00 +2°C° 0.1 mm 1 m/s 726 mmHg 83%
    07:00 +2°C° 0.1 mm 1 m/s 726 mmHg 83%
    08:00 +2°C° 0.1 mm 1 m/s 726 mmHg 83%
    09:00 +4°C° 0.5 mm 1 m/s 726 mmHg 84%
    10:00 +5°C° 0.5 mm 1 m/s 727 mmHg 85%
    11:00 +6°C° 0.5 mm 1 m/s 727 mmHg 86%
    12:00 +7°C° 0 mm 1 m/s 727 mmHg 85%
    13:00 +7°C° 0 mm 1 m/s 726 mmHg 84%
    14:00 +8°C° 0 mm 1 m/s 726 mmHg 83%
    15:00 +7°C° 0 mm 1 m/s 726 mmHg 85%
    16:00 +6°C° 0 mm 1 m/s 726 mmHg 87%
    17:00 +4°C° 0 mm 1 m/s 726 mmHg 89%
    18:00 +4°C° 0 mm 1 m/s 726 mmHg 88%
    19:00 +4°C° 0 mm 1 m/s 726 mmHg 87%
    20:00 +3°C° 0 mm 1 m/s 727 mmHg 86%
    21:00 +3°C° 0 mm 1 m/s 727 mmHg 85%
    22:00 +3°C° 0 mm 1 m/s 727 mmHg 84%
    23:00 +3°C° 0 mm 1 m/s 726 mmHg 83%

    22 Dezembro, Sábado

    Tempo Temperatura Precipitação Vento Pressão Humidade
    00:00 +3°C° 0 mm 1 m/s 726 mmHg 81%
    01:00 +3°C° 0 mm 1 m/s 726 mmHg 80%
    02:00 +3°C° 0 mm 1 m/s 726 mmHg 79%
    03:00 +3°C° 0 mm 1 m/s 725 mmHg 78%
    04:00 +3°C° 0 mm 1 m/s 725 mmHg 76%
    05:00 +3°C° 0 mm 1 m/s 725 mmHg 74%
    06:00 +3°C° 0 mm 1 m/s 725 mmHg 74%
    07:00 +3°C° 0 mm 1 m/s 725 mmHg 73%
    08:00 +4°C° 0 mm 1 m/s 726 mmHg 72%
    09:00 +5°C° 0 mm 1 m/s 726 mmHg 72%
    10:00 +7°C° 0 mm 1 m/s 726 mmHg 71%
    11:00 +9°C° 0 mm 1 m/s 726 mmHg 71%
    12:00 +10°C° 0 mm 1 m/s 726 mmHg 71%
    13:00 +10°C° 0 mm 1 m/s 725 mmHg 71%
    14:00 +11°C° 0 mm 1 m/s 725 mmHg 71%
    15:00 +9°C° 0 mm 1 m/s 725 mmHg 74%
    16:00 +8°C° 0 mm 1 m/s 724 mmHg 76%
    17:00 +6°C° 0 mm 1 m/s 724 mmHg 79%
    18:00 +6°C° 0 mm 1 m/s 724 mmHg 77%
    19:00 +5°C° 0 mm 1 m/s 724 mmHg 74%
    20:00 +5°C° 0 mm 1 m/s 724 mmHg 72%
    21:00 +5°C° 0 mm 1 m/s 724 mmHg 71%
    22:00 +5°C° 0 mm 1 m/s 725 mmHg 70%
    23:00 +5°C° 0 mm 1 m/s 725 mmHg 69%
    Mostrar mais